SCP
-0 -0 0 0 0 0 0 0 0 0 0 0 0 0 0 0 0 0 0 0 0 0 -0 -0 0 0 0 0 0 0 0 0 0 0 0 0 0 0 -0 0 0 -0 -0 0 0 -0 -0
-0 -0 -0 0 -0 0 0 0 0 0 0 0 0 0 0 0 0 0 0 0 0 0 0 0 0 0 0 0 0 0 0 0 0 0 0 0 0 0 0 -0 -0 0 -0 -0 0 -0 -0
-0 -0 -0 -0 -0 -0 -0 -0 0 0 0 0 0 0 0 0 0 0 0 0 0 -0 0 0 0 0 0 0 0 0 0 0 0 0 0 0 0 0 0 -0 0 0 -0 -0 0 0 -0
-0 -0 -0 -0 -0 -0 -0 -0 -0 0 0 0 0 0 0 0 0 0 0 0 0 -0 0 0 0 0 0 0 0 0 0 0 0 0 0 0 0 0 0 -0 0 -0 0 -0 -0 -0 -0
-0 -0 -0 -0 -0 -0 -0 -0 -0 0 0 0 0 0 0 0 0 0 0 0 0 0 0 0 0 0 0 0 0 0 0 0 0 0 -0 -0 0 0 0 0 -0 0 -0 0 0 -0 -0
-0 -0 -0 -0 -0 -0 -0 -0 -0 -0 0 0 0 0 0 0 0 0 0 0 0 0 0 0 0 0 0 0 0 0 0 0 -0 -0 -0 -0 0 0 0 -0 -0 -0 0 0 0 -0 0
-0 -0 -0 -0 -0 -0 -0 -0 -0 -0 0 0 0 0 0 0 0 0 0 0 0 0 0 0 0 0 0 0 0 0 0 -0 -0 -0 -0 0 0 -0 -0 0 0 0 -0 -0 -0 0 0
-0 -0 -0 -0 -0 -0 -0 -0 -0 -0 -0 0 0 0 0 0 0 0 0 0 0 0 0 0 0 0 0 0 0 0 0 0 -0 0 -0 0 -0 -0 0 -0 -0 -0 -0 -0 0 -0 0
-0 -0 -0 -0 -0 -0 -0 -0 -0 -0 0 0 0 0 0 0 0 0 0 0 0 0 0 0 0 0 0 0 0 0 0 0 -0 0 0 0 0 0 0 0 -0 0 -0 -0 -0 -0 -0
-0 -0 -0 -0 -0 -0 -0 -0 -0 -0 0 0 0 0 0 0 0 0 0 0 0 0 0 0 0 0 0 0 0 0 0 0 0 0 0 0 -0 0 0 -0 0 -0 0 0 -0 -0 -0
-0 -0 -0 -0 -0 -0 -0 -0 -0 -0 -0 0 0 0 0 0 0 0 0 0 0 0 0 0 0 0 0 0 0 0 0 0 0 0 0 0 0 0 -0 -0 0 -0 0 -0 -0 -0 -0
-0 -0 -0 -0 -0 -0 -0 -0 -0 -0 -0 0 0 0 0 0 0 0 0 0 0 0 0 0 0 0 0 0 0 0 0 0 0 -0 0 0 0 0 -0 0 -0 -0 -0 0 -0 -0 -0
-0 -0 -0 -0 -0 -0 -0 -0 -0 -0 0 0 0 0 0 0 0 0 0 0 0 0 0 0 0 0 -0 0 0 0 -0 -0 -0 -0 -0 -0 0 -0 0 -0 -0 -0 -0 -0 -0 -0 0
-0 -0 -0 -0 -0 -0 -0 -0 -0 -0 0 0 0 0 0 0 0 0 0 0 0 0 0 0 0 0 -0 0 0 0 0 -0 0 0 0 -0 -0 -0 -0 0 -0 -0 -0 -0 0 0 0
-0 -0 -0 -0 -0 -0 -0 -0 -0 -0 0 0 0 0 0 0 0 0 0 0 0 0 0 0 0 0 0 0 0 0 -0 -0 -0 0 -0 0 0 0 0 0 0 0 -0 0 -0 0 0
-0 -0 -0 -0 -0 -0 -0 -0 -0 -0 -0 0 0 0 0 0 0 0 0 0 0 0 0 0 0 0 0 -0 0 -0 0 0 0 -0 0 0 0 0 0 0 0 0 0 -0 0 0 0
-0 -0 -0 -0 -0 -0 -0 -0 -0 -0 -0 0 0 0 0 0 0 0 0 0 0 0 0 0 0 0 0 -0 -0 0 0 0 0 0 -0 -0 0 0 0 0 0 0 -0 0 0 0 0
-0 -0 -0 -0 -0 -0 -0 -0 -0 -0 -0 0 0 0 0 0 0 0 0 0 0 0 0 0 0 0 0 0 -0 -0 0 0 0 0 0 -0 0 0 0 0 0 0 0 0 0 0 0
-0 -0 -0 -0 -0 -0 -0 -0 -0 0 0 0 0 0 0 0 0 0 0 0 0 0 0 0 0 0 0 0 0 0 0 0 0 0 0 0 0 0 0 0 0 0 0 0 0 0 0
-0 -0 -0 -0 -0 -0 -0 -0 -0 0 0 0 0 0 0 0 0 0 0 0 0 0 0 0 0 0 0 0 0 0 0 0 0 0 0 0 0 0 0 0 0 0 0 0 0 0 0
-0 -0 -0 -0 -0 -0 -0 -0 -0 0 0 0 0 0 0 0 0 0 0 0 0 0 0 0 0 0 0 0 0 0 0 0 0 0 0 0 0 0 0 0 0 0 0 0 0 0 0
-0 -0 0 0 -0 -0 -0 -0 -0 -0 0 0 0 0 0 0 0 0 0 0 0 0 0 0 0 0 0 0 0 0 0 0 0 0 0 0 0 0 0 0 0 0 0 0 0 0 0
-0 0 0 0 0 0 0 -0 -0 -0 0 0 0 0 0 0 0 0 0 0 0 0 0 0 0 0 0 0 0 0 0 0 0 0 0 0 0 0 0 0 0 0 0 0 0 0 0
0 0 0 0 0 0 0 0 0 -0 0 0 0 0 0 0 0 0 0 0 0 0 0 0 0 0 0 0 0 0 0 0 0 0 0 0 0 0 0 0 0 0 0 0 0 0 0
0 0 0 0 0 0 0 0 0 0 0 0 0 0 0 0 0 0 0 0 0 0 0 0 0 0 0 0 0 0 0 0 0 0 0 0 0 0 0 0 0 0 0 0 0 0 0
0 0 0 0 0 0 0 0 0 0 0 0 0 0 0 0 0 0 0 0 0 0 0 0 0 0 0 0 0 0 0 0 0 0 0 0 0 0 0 0 0 0 0 0 0 0 0
0 0 0 0 0 0 0 0 0 0 0 0 0 0 0 0 0 0 0 0 0 0 0 0 0 0 0 0 0 0 0 0 0 0 0 0 0 0 0 0 0 0 0 0 0 0 0
0 0 0 0 0 0 0 0 0 0 0 0 0 0 0 0 0 0 0 0 0 0 0 0 0 0 0 0 0 0 0 0 0 0 0 0 0 0 0 0 0 0 0 0 0 0 0
0 0 0 0 0 0 0 0 0 0 0 0 0 0 0 0 0 0 0 0 0 0 0 0 0 0 0 0 0 0 0 0 0 0 0 0 0 0 0 0 0 0 0 0 0 0 0
Wind_Speed_500mb
28 28 28 28 27 28 29 31 31 30 26 20 18 19 19 17 16 15 15 15 15 16 16 16 15 11 6 11 6 9 12 10 4 5 5 10 13 7 2 3 1 8 18 10 6 10 12
30 29 29 29 29 29 31 32 33 33 29 19 16 17 18 17 16 15 15 15 15 15 15 15 15 11 5 19 11 18 14 9 2 2 1 8 11 8 3 5 9 15 19 23 8 12 15
31 30 30 30 30 30 31 33 34 34 31 21 13 14 16 16 16 15 15 14 14 14 14 15 14 11 12 5 13 15 13 3 6 4 5 4 11 11 5 7 10 13 17 13 9 7 14
32 31 31 30 31 31 32 33 34 34 31 23 12 11 14 16 16 15 13 13 13 12 14 14 12 7 11 13 14 12 10 6 9 6 6 3 13 5 5 3 5 5 8 11 15 7 2
34 33 32 31 31 31 32 32 33 33 31 24 13 7 11 15 16 14 13 12 11 11 12 11 7 6 11 9 13 13 14 9 9 8 7 6 9 6 10 13 16 3 5 8 4 6 6
36 35 34 33 32 31 32 32 32 32 31 25 14 4 10 15 17 16 15 12 10 9 10 8 7 9 12 12 12 17 13 9 14 17 12 8 8 12 11 14 10 9 8 6 7 9 12
39 38 36 34 33 32 33 32 32 32 29 25 15 4 10 15 18 19 20 15 7 5 19 6 5 6 10 3 17 24 15 16 16 23 25 5 17 16 15 9 9 9 13 15 11 10 13
40 40 38 37 35 33 34 34 34 31 28 25 17 3 10 16 18 20 22 9 6 5 11 23 12 17 12 7 14 24 18 19 21 28 13 18 23 14 2 7 9 10 19 17 18 3 13
41 40 40 40 37 35 34 34 34 31 28 24 17 2 11 18 20 23 24 10 12 2 10 15 14 12 9 14 15 31 29 15 27 25 23 32 8 5 10 9 14 17 16 16 18 21 22
41 41 41 41 41 38 35 35 36 33 28 23 15 2 15 22 17 21 14 13 6 5 14 17 16 11 12 11 14 19 27 18 15 23 14 20 7 13 17 19 12 28 12 12 17 18 12
41 42 42 43 44 42 38 36 35 33 29 22 13 6 21 30 17 19 13 8 4 10 11 21 16 10 14 12 26 23 20 18 17 18 14 16 16 22 20 15 6 15 6 15 18 21 14
40 41 43 44 46 46 40 36 35 34 29 23 8 10 24 22 24 18 9 8 6 13 9 18 17 21 23 15 13 23 22 13 2 12 18 23 6 14 18 5 9 11 21 18 14 11 17
40 41 43 45 47 48 43 38 37 34 29 22 3 12 27 24 15 14 12 11 11 10 13 17 22 21 27 19 17 24 26 26 18 21 27 31 30 17 16 21 14 19 29 11 11 12 4
39 41 43 45 48 50 45 40 38 35 28 17 3 14 26 28 24 13 14 12 11 8 6 11 17 18 24 22 15 18 24 23 15 14 6 20 22 19 14 24 15 21 21 8 6 4 8
39 40 42 45 48 51 46 41 39 35 25 8 9 15 27 28 23 15 15 14 6 7 4 15 24 25 17 22 9 18 21 23 18 26 9 13 9 12 2 8 17 16 20 19 18 12 13
37 40 41 45 47 51 45 43 41 35 21 4 16 17 17 32 20 12 14 2 3 5 4 12 16 18 22 33 20 21 20 12 13 19 27 4 8 7 14 6 8 13 10 13 8 8 13
35 39 40 43 46 50 45 44 41 33 17 10 23 12 18 26 19 15 11 2 2 0 5 8 8 12 14 26 25 20 18 13 6 10 21 15 12 17 11 12 1 12 17 6 13 11 16
35 37 40 41 44 48 44 44 41 32 13 11 8 6 29 28 16 7 12 4 3 4 3 5 5 3 19 17 19 16 16 5 2 7 11 22 12 16 5 10 2 12 17 15 13 17 8
35 36 38 40 42 46 43 43 40 34 16 9 5 10 25 14 11 13 9 10 9 7 3 5 9 5 8 12 8 6 9 4 3 15 6 12 16 14 14 18 19 16 10 15 16 16 24
37 34 35 38 40 43 42 40 39 34 15 9 6 9 12 17 7 14 10 11 12 5 6 2 5 11 17 15 4 14 15 8 8 4 2 11 18 19 20 14 11 9 15 19 24 22 25
37 32 32 35 37 40 40 38 37 34 11 6 5 3 3 14 20 15 7 3 12 11 6 6 8 3 7 10 11 9 6 16 12 8 5 9 20 7 8 11 11 17 19 21 27 29 27
36 32 29 30 33 35 38 36 36 33 9 7 4 5 6 4 6 19 12 13 13 10 5 15 12 11 5 8 10 8 5 5 3 6 3 6 13 13 23 12 18 25 26 27 29 28 29
35 32 26 25 29 31 33 33 35 30 17 7 6 3 5 9 14 16 15 8 10 9 8 6 12 17 19 18 16 13 10 7 6 5 4 10 16 15 27 8 17 25 27 29 29 24 22
33 30 24 22 25 26 28 28 30 31 26 20 13 2 9 10 12 10 10 8 11 5 7 11 9 7 8 7 6 3 1 2 5 6 14 14 16 17 22 15 31 7 10 10 15 14 11
31 28 23 19 21 22 23 23 23 25 23 20 21 3 5 5 3 11 14 9 14 15 14 15 14 9 8 5 8 7 12 10 9 4 6 12 17 16 14 22 22 16 7 5 8 11 4
30 27 22 18 20 17 18 19 19 19 21 12 19 7 3 11 7 5 11 10 13 14 13 12 9 7 5 4 6 10 12 5 7 8 4 4 12 15 9 17 17 16 11 6 5 17 10
28 24 21 18 20 14 14 16 15 16 16 13 9 13 1 6 5 1 3 4 2 4 4 12 9 8 6 7 12 11 11 4 10 11 7 10 8 20 16 16 1 9 4 3 16 8 7
25 20 22 20 18 14 11 13 12 14 14 11 6 13 5 2 6 5 5 3 3 3 8 10 10 10 8 11 8 7 10 7 9 4 4 8 7 10 7 12 24 8 7 13 12 11 16
21 20 22 22 18 14 11 10 10 10 13 7 6 13 7 2 3 8 8 9 8 6 1 5 6 4 5 3 5 3 8 7 5 8 6 6 6 9 7 10 5 4 5 7 13 19 26
Wind_Direction_500mb
12 10 7 6 5 1 360 360 353 346 331 306 277 257 249 243 240 242 240 237 235 229 227 228 229 227 220 238 196 154 140 126 109 21 23 10 24 310 29 345 125 335 347 350 294 260 263
5 4 2 360 359 359 356 359 356 352 343 322 283 255 243 236 233 233 235 233 231 227 222 223 224 221 229 231 176 139 135 121 294 235 328 19 19 5 352 36 333 338 313 303 321 263 267
3 360 358 356 355 355 354 356 357 355 351 336 299 257 238 229 224 226 229 228 227 222 215 217 221 222 237 195 177 148 145 191 226 207 195 17 5 326 315 170 351 313 284 295 24 323 257
3 360 358 356 353 352 353 354 357 357 356 348 319 262 232 221 216 215 218 220 220 213 210 209 214 224 247 217 203 173 192 206 189 181 167 25 346 341 322 303 206 306 249 295 59 356 89
4 1 359 356 354 352 352 354 356 357 358 354 338 266 223 210 204 200 203 206 206 204 202 194 190 219 228 225 201 201 187 190 194 168 142 30 327 309 212 266 205 242 48 21 113 57 343
6 4 360 358 356 353 352 354 356 356 357 355 346 279 206 198 190 187 186 183 182 187 181 168 203 221 235 191 199 195 210 191 185 174 185 234 262 246 209 281 31 328 332 12 343 14 304
7 5 2 360 357 354 353 356 355 354 355 355 349 310 190 188 182 180 172 146 145 187 201 218 161 288 138 326 199 195 195 183 187 204 218 170 266 225 37 9 343 311 292 309 326 353 297
7 5 4 2 359 356 355 356 354 353 351 353 352 328 179 177 176 175 173 193 231 123 189 222 243 244 248 298 186 186 178 191 200 206 200 222 246 79 40 314 313 293 296 281 304 292 293
5 5 4 3 0 357 355 356 353 350 349 351 352 343 167 168 170 176 181 213 172 14 233 179 217 227 219 193 196 174 184 191 203 205 215 241 77 124 271 240 277 234 313 343 324 313 269
3 3 2 2 1 356 355 354 352 347 346 350 351 184 162 157 160 180 200 209 230 224 209 144 193 174 189 197 181 164 193 199 196 221 204 247 232 246 243 256 268 298 49 319 304 297 352
1 2 360 360 359 357 354 354 350 345 343 346 340 183 169 162 164 161 199 216 204 175 175 151 146 163 173 220 127 174 190 203 221 200 231 235 202 213 241 263 318 318 353 320 303 286 258
359 360 358 358 357 356 353 352 349 343 343 343 329 185 173 170 168 178 195 177 158 228 118 152 147 177 178 189 155 148 179 209 327 220 222 259 189 264 261 266 261 307 271 249 252 261 239
358 357 357 356 356 355 352 351 349 344 343 343 320 179 177 164 171 180 160 162 224 277 151 153 175 179 193 166 152 177 184 189 202 201 215 209 219 215 240 250 207 233 249 237 212 204 10
356 355 356 355 354 354 352 351 349 345 344 347 121 163 171 175 166 163 163 226 250 111 140 135 165 173 191 165 173 173 191 200 216 256 169 206 173 203 159 238 278 214 304 310 247 302 5
352 355 355 355 353 354 353 352 350 346 345 1 134 149 167 175 171 163 223 228 54 96 89 158 155 168 173 184 212 191 202 210 208 209 268 191 107 102 134 209 254 157 233 14 288 180 257
347 354 354 354 354 354 354 353 352 349 350 110 141 133 167 173 172 173 242 358 109 19 334 218 186 207 172 177 193 204 178 193 203 214 244 98 182 196 122 197 111 301 72 232 187 291 317
343 349 353 354 354 354 355 354 354 356 2 129 141 172 178 177 166 218 231 106 276 313 281 214 198 172 196 173 205 193 169 128 191 176 230 242 263 147 198 218 340 173 211 208 308 292 310
341 344 350 352 354 355 355 355 356 358 9 151 170 168 168 160 206 237 220 208 351 286 154 203 256 188 167 161 194 213 199 28 60 217 203 220 266 243 245 78 274 280 300 277 281 299 280
339 339 345 351 353 354 357 357 357 358 1 155 160 109 169 179 218 205 177 236 259 277 150 200 167 251 181 151 146 175 153 97 196 198 230 186 239 210 202 186 200 238 218 270 280 282 280
336 335 340 347 351 354 357 359 358 359 355 175 209 147 169 206 273 263 198 212 209 212 235 244 118 150 151 144 143 155 154 113 118 156 216 226 268 272 296 10 6 208 225 239 265 277 293
329 329 334 343 349 353 356 1 3 0 0 160 241 126 132 184 203 208 220 198 203 186 203 202 156 189 165 145 141 133 154 146 140 137 182 266 270 281 296 308 283 283 270 245 257 272 281
322 323 327 338 346 352 356 1 8 8 21 60 294 291 186 170 167 204 167 197 220 154 255 172 213 140 159 107 16 141 164 249 55 153 225 250 276 273 277 249 268 274 268 260 263 267 280
311 319 318 331 341 349 356 2 9 19 33 42 358 340 283 157 187 209 196 206 182 172 78 64 133 153 115 80 71 72 69 83 93 308 292 282 285 263 274 300 281 267 263 259 272 272 287
304 313 309 326 336 344 355 2 9 16 29 46 9 343 269 166 217 200 181 196 184 142 143 101 93 134 92 109 97 147 176 220 246 304 276 262 262 276 269 257 256 9 3 302 280 289 270
298 300 297 315 328 336 349 1 4 13 18 29 24 32 309 205 203 171 177 151 138 137 115 102 63 82 126 169 238 242 210 218 174 350 296 256 252 256 252 246 257 221 161 297 272 259 228
290 287 288 300 317 325 339 355 1 3 11 15 19 32 338 292 129 106 173 187 167 145 147 115 86 123 181 256 241 245 255 324 213 187 34 155 241 244 193 267 273 68 100 345 299 259 66
280 277 279 290 307 307 324 342 357 358 0 9 352 15 53 275 71 170 193 161 197 214 157 146 145 156 197 226 246 252 240 331 233 240 176 189 228 232 226 258 253 76 53 262 242 39 5
270 270 272 279 298 293 303 326 346 359 358 5 315 353 159 283 106 87 66 89 139 242 228 120 181 200 211 239 265 186 258 165 240 35 244 240 251 220 256 275 257 61 182 289 7 321 321
260 262 265 269 283 285 272 304 325 353 2 5 2 347 171 127 100 130 105 100 87 73 59 165 25 82 32 250 221 180 197 188 299 214 175 235 333 342 311 26 56 356 357 326 318 310 309
Wind_Speed_850mb
28 28 28 28 27 28 29 31 31 30 26 20 18 19 19 17 16 15 15 15 15 16 16 16 15 11 6 11 6 9 12 10 4 5 5 10 13 7 2 3 1 8 18 10 6 10 12
30 29 29 29 29 29 31 32 33 33 29 19 16 17 18 17 16 15 15 15 15 15 15 15 15 11 5 19 11 18 14 9 2 2 1 8 11 8 3 5 9 15 19 23 8 12 15
31 30 30 30 30 30 31 33 34 34 31 21 13 14 16 16 16 15 15 14 14 14 14 15 14 11 12 5 13 15 13 3 6 4 5 4 11 11 5 7 10 13 17 13 9 7 14
32 31 31 30 31 31 32 33 34 34 31 23 12 11 14 16 16 15 13 13 13 12 14 14 12 7 11 13 14 12 10 6 9 6 6 3 13 5 5 3 5 5 8 11 15 7 2
34 33 32 31 31 31 32 32 33 33 31 24 13 7 11 15 16 14 13 12 11 11 12 11 7 6 11 9 13 13 14 9 9 8 7 6 9 6 10 13 16 3 5 8 4 6 6
36 35 34 33 32 31 32 32 32 32 31 25 14 4 10 15 17 16 15 12 10 9 10 8 7 9 12 12 12 17 13 9 14 17 12 8 8 12 11 14 10 9 8 6 7 9 12
39 38 36 34 33 32 33 32 32 32 29 25 15 4 10 15 18 19 20 15 7 5 19 6 5 6 10 3 17 24 15 16 16 23 25 5 17 16 15 9 9 9 13 15 11 10 13
40 40 38 37 35 33 34 34 34 31 28 25 17 3 10 16 18 20 22 9 6 5 11 23 12 17 12 7 14 24 18 19 21 28 13 18 23 14 2 7 9 10 19 17 18 3 13
41 40 40 40 37 35 34 34 34 31 28 24 17 2 11 18 20 23 24 10 12 2 10 15 14 12 9 14 15 31 29 15 27 25 23 32 8 5 10 9 14 17 16 16 18 21 22
41 41 41 41 41 38 35 35 36 33 28 23 15 2 15 22 17 21 14 13 6 5 14 17 16 11 12 11 14 19 27 18 15 23 14 20 7 13 17 19 12 28 12 12 17 18 12
41 42 42 43 44 42 38 36 35 33 29 22 13 6 21 30 17 19 13 8 4 10 11 21 16 10 14 12 26 23 20 18 17 18 14 16 16 22 20 15 6 15 6 15 18 21 14
40 41 43 44 46 46 40 36 35 34 29 23 8 10 24 22 24 18 9 8 6 13 9 18 17 21 23 15 13 23 22 13 2 12 18 23 6 14 18 5 9 11 21 18 14 11 17
40 41 43 45 47 48 43 38 37 34 29 22 3 12 27 24 15 14 12 11 11 10 13 17 22 21 27 19 17 24 26 26 18 21 27 31 30 17 16 21 14 19 29 11 11 12 4
39 41 43 45 48 50 45 40 38 35 28 17 3 14 26 28 24 13 14 12 11 8 6 11 17 18 24 22 15 18 24 23 15 14 6 20 22 19 14 24 15 21 21 8 6 4 8
39 40 42 45 48 51 46 41 39 35 25 8 9 15 27 28 23 15 15 14 6 7 4 15 24 25 17 22 9 18 21 23 18 26 9 13 9 12 2 8 17 16 20 19 18 12 13
37 40 41 45 47 51 45 43 41 35 21 4 16 17 17 32 20 12 14 2 3 5 4 12 16 18 22 33 20 21 20 12 13 19 27 4 8 7 14 6 8 13 10 13 8 8 13
35 39 40 43 46 50 45 44 41 33 17 10 23 12 18 26 19 15 11 2 2 0 5 8 8 12 14 26 25 20 18 13 6 10 21 15 12 17 11 12 1 12 17 6 13 11 16
35 37 40 41 44 48 44 44 41 32 13 11 8 6 29 28 16 7 12 4 3 4 3 5 5 3 19 17 19 16 16 5 2 7 11 22 12 16 5 10 2 12 17 15 13 17 8
35 36 38 40 42 46 43 43 40 34 16 9 5 10 25 14 11 13 9 10 9 7 3 5 9 5 8 12 8 6 9 4 3 15 6 12 16 14 14 18 19 16 10 15 16 16 24
37 34 35 38 40 43 42 40 39 34 15 9 6 9 12 17 7 14 10 11 12 5 6 2 5 11 17 15 4 14 15 8 8 4 2 11 18 19 20 14 11 9 15 19 24 22 25
37 32 32 35 37 40 40 38 37 34 11 6 5 3 3 14 20 15 7 3 12 11 6 6 8 3 7 10 11 9 6 16 12 8 5 9 20 7 8 11 11 17 19 21 27 29 27
36 32 29 30 33 35 38 36 36 33 9 7 4 5 6 4 6 19 12 13 13 10 5 15 12 11 5 8 10 8 5 5 3 6 3 6 13 13 23 12 18 25 26 27 29 28 29
35 32 26 25 29 31 33 33 35 30 17 7 6 3 5 9 14 16 15 8 10 9 8 6 12 17 19 18 16 13 10 7 6 5 4 10 16 15 27 8 17 25 27 29 29 24 22
33 30 24 22 25 26 28 28 30 31 26 20 13 2 9 10 12 10 10 8 11 5 7 11 9 7 8 7 6 3 1 2 5 6 14 14 16 17 22 15 31 7 10 10 15 14 11
31 28 23 19 21 22 23 23 23 25 23 20 21 3 5 5 3 11 14 9 14 15 14 15 14 9 8 5 8 7 12 10 9 4 6 12 17 16 14 22 22 16 7 5 8 11 4
30 27 22 18 20 17 18 19 19 19 21 12 19 7 3 11 7 5 11 10 13 14 13 12 9 7 5 4 6 10 12 5 7 8 4 4 12 15 9 17 17 16 11 6 5 17 10
28 24 21 18 20 14 14 16 15 16 16 13 9 13 1 6 5 1 3 4 2 4 4 12 9 8 6 7 12 11 11 4 10 11 7 10 8 20 16 16 1 9 4 3 16 8 7
25 20 22 20 18 14 11 13 12 14 14 11 6 13 5 2 6 5 5 3 3 3 8 10 10 10 8 11 8 7 10 7 9 4 4 8 7 10 7 12 24 8 7 13 12 11 16
21 20 22 22 18 14 11 10 10 10 13 7 6 13 7 2 3 8 8 9 8 6 1 5 6 4 5 3 5 3 8 7 5 8 6 6 6 9 7 10 5 4 5 7 13 19 26
Wind_Direction_850mb
12 10 7 6 5 1 360 360 353 346 331 306 277 257 249 243 240 242 240 237 235 229 227 228 229 227 220 238 196 154 140 126 109 21 23 10 24 310 29 345 125 335 347 350 294 260 263
5 4 2 360 359 359 356 359 356 352 343 322 283 255 243 236 233 233 235 233 231 227 222 223 224 221 229 231 176 139 135 121 294 235 328 19 19 5 352 36 333 338 313 303 321 263 267
3 360 358 356 355 355 354 356 357 355 351 336 299 257 238 229 224 226 229 228 227 222 215 217 221 222 237 195 177 148 145 191 226 207 195 17 5 326 315 170 351 313 284 295 24 323 257
3 360 358 356 353 352 353 354 357 357 356 348 319 262 232 221 216 215 218 220 220 213 210 209 214 224 247 217 203 173 192 206 189 181 167 25 346 341 322 303 206 306 249 295 59 356 89
4 1 359 356 354 352 352 354 356 357 358 354 338 266 223 210 204 200 203 206 206 204 202 194 190 219 228 225 201 201 187 190 194 168 142 30 327 309 212 266 205 242 48 21 113 57 343
6 4 360 358 356 353 352 354 356 356 357 355 346 279 206 198 190 187 186 183 182 187 181 168 203 221 235 191 199 195 210 191 185 174 185 234 262 246 209 281 31 328 332 12 343 14 304
7 5 2 360 357 354 353 356 355 354 355 355 349 310 190 188 182 180 172 146 145 187 201 218 161 288 138 326 199 195 195 183 187 204 218 170 266 225 37 9 343 311 292 309 326 353 297
7 5 4 2 359 356 355 356 354 353 351 353 352 328 179 177 176 175 173 193 231 123 189 222 243 244 248 298 186 186 178 191 200 206 200 222 246 79 40 314 313 293 296 281 304 292 293
5 5 4 3 0 357 355 356 353 350 349 351 352 343 167 168 170 176 181 213 172 14 233 179 217 227 219 193 196 174 184 191 203 205 215 241 77 124 271 240 277 234 313 343 324 313 269
3 3 2 2 1 356 355 354 352 347 346 350 351 184 162 157 160 180 200 209 230 224 209 144 193 174 189 197 181 164 193 199 196 221 204 247 232 246 243 256 268 298 49 319 304 297 352
1 2 360 360 359 357 354 354 350 345 343 346 340 183 169 162 164 161 199 216 204 175 175 151 146 163 173 220 127 174 190 203 221 200 231 235 202 213 241 263 318 318 353 320 303 286 258
359 360 358 358 357 356 353 352 349 343 343 343 329 185 173 170 168 178 195 177 158 228 118 152 147 177 178 189 155 148 179 209 327 220 222 259 189 264 261 266 261 307 271 249 252 261 239
358 357 357 356 356 355 352 351 349 344 343 343 320 179 177 164 171 180 160 162 224 277 151 153 175 179 193 166 152 177 184 189 202 201 215 209 219 215 240 250 207 233 249 237 212 204 10
356 355 356 355 354 354 352 351 349 345 344 347 121 163 171 175 166 163 163 226 250 111 140 135 165 173 191 165 173 173 191 200 216 256 169 206 173 203 159 238 278 214 304 310 247 302 5
352 355 355 355 353 354 353 352 350 346 345 1 134 149 167 175 171 163 223 228 54 96 89 158 155 168 173 184 212 191 202 210 208 209 268 191 107 102 134 209 254 157 233 14 288 180 257
347 354 354 354 354 354 354 353 352 349 350 110 141 133 167 173 172 173 242 358 109 19 334 218 186 207 172 177 193 204 178 193 203 214 244 98 182 196 122 197 111 301 72 232 187 291 317
343 349 353 354 354 354 355 354 354 356 2 129 141 172 178 177 166 218 231 106 276 313 281 214 198 172 196 173 205 193 169 128 191 176 230 242 263 147 198 218 340 173 211 208 308 292 310
341 344 350 352 354 355 355 355 356 358 9 151 170 168 168 160 206 237 220 208 351 286 154 203 256 188 167 161 194 213 199 28 60 217 203 220 266 243 245 78 274 280 300 277 281 299 280
339 339 345 351 353 354 357 357 357 358 1 155 160 109 169 179 218 205 177 236 259 277 150 200 167 251 181 151 146 175 153 97 196 198 230 186 239 210 202 186 200 238 218 270 280 282 280
336 335 340 347 351 354 357 359 358 359 355 175 209 147 169 206 273 263 198 212 209 212 235 244 118 150 151 144 143 155 154 113 118 156 216 226 268 272 296 10 6 208 225 239 265 277 293
329 329 334 343 349 353 356 1 3 0 0 160 241 126 132 184 203 208 220 198 203 186 203 202 156 189 165 145 141 133 154 146 140 137 182 266 270 281 296 308 283 283 270 245 257 272 281
322 323 327 338 346 352 356 1 8 8 21 60 294 291 186 170 167 204 167 197 220 154 255 172 213 140 159 107 16 141 164 249 55 153 225 250 276 273 277 249 268 274 268 260 263 267 280
311 319 318 331 341 349 356 2 9 19 33 42 358 340 283 157 187 209 196 206 182 172 78 64 133 153 115 80 71 72 69 83 93 308 292 282 285 263 274 300 281 267 263 259 272 272 287
304 313 309 326 336 344 355 2 9 16 29 46 9 343 269 166 217 200 181 196 184 142 143 101 93 134 92 109 97 147 176 220 246 304 276 262 262 276 269 257 256 9 3 302 280 289 270
298 300 297 315 328 336 349 1 4 13 18 29 24 32 309 205 203 171 177 151 138 137 115 102 63 82 126 169 238 242 210 218 174 350 296 256 252 256 252 246 257 221 161 297 272 259 228
290 287 288 300 317 325 339 355 1 3 11 15 19 32 338 292 129 106 173 187 167 145 147 115 86 123 181 256 241 245 255 324 213 187 34 155 241 244 193 267 273 68 100 345 299 259 66
280 277 279 290 307 307 324 342 357 358 0 9 352 15 53 275 71 170 193 161 197 214 157 146 145 156 197 226 246 252 240 331 233 240 176 189 228 232 226 258 253 76 53 262 242 39 5
270 270 272 279 298 293 303 326 346 359 358 5 315 353 159 283 106 87 66 89 139 242 228 120 181 200 211 239 265 186 258 165 240 35 244 240 251 220 256 275 257 61 182 289 7 321 321
260 262 265 269 283 285 272 304 325 353 2 5 2 347 171 127 100 130 105 100 87 73 59 165 25 82 32 250 221 180 197 188 299 214 175 235 333 342 311 26 56 356 357 326 318 310 309